Wetbulb
71.87 74.29 77.60 77.48 76.82 76.79 76.44 76.63 76.79 76.75 77.00 77.09 76.93 76.65 76.08 75.29 75.21 75.67 75.41 75.42 74.62 74.54 74.93 75.04 74.36 75.01 74.87 74.15 73.76 73.86 74.07 74.78 75.15 75.31 75.88 75.73 76.16 76.96 76.46 75.44 75.41 75.58 76.47
73.18 74.73 77.62 77.52 77.00 76.78 76.46 76.72 76.85 77.15 76.75 76.77 77.02 76.63 75.62 75.37 75.40 75.64 75.72 75.31 74.87 74.51 74.32 74.35 74.76 73.95 74.15 74.72 74.68 73.90 74.14 74.67 74.74 75.09 75.34 75.75 76.10 76.67 76.57 76.43 75.44 75.50 76.50
73.70 75.06 75.77 77.34 77.41 77.03 76.42 76.28 76.36 76.66 76.24 76.22 76.24 75.78 75.70 75.64 75.61 75.64 75.64 75.34 75.26 75.26 74.79 74.46 74.68 74.79 74.13 73.48 73.96 74.29 74.56 74.25 74.83 75.33 74.69 73.06 74.92 76.56 76.29 76.71 76.55 75.36 75.53
74.44 74.94 74.69 77.13 77.39 77.33 76.92 76.52 76.23 76.27 76.36 76.22 76.41 76.55 76.46 76.46 76.46 76.38 75.92 75.70 75.45 75.65 75.45 74.82 74.51 74.71 74.54 74.76 74.46 74.04 73.58 73.48 74.67 74.95 71.53 72.67 74.15 76.14 76.11 76.11 76.59 76.42 75.75
73.99 74.65 74.57 77.44 77.43 76.74 76.46 76.96 76.68 76.83 76.19 76.27 76.78 76.54 76.34 76.26 76.30 76.20 76.14 75.92 75.48 75.54 75.98 75.87 75.54 75.45 75.09 75.01 74.79 74.61 74.10 73.38 74.02 72.80 70.67 71.55 72.69 74.20 75.59 75.96 75.67 76.26 76.03
73.92 74.84 76.64 77.53 76.61 76.61 76.36 76.30 76.42 76.51 76.35 76.38 76.62 76.41 76.06 75.64 75.67 75.65 75.68 75.76 75.78 75.78 75.48 75.45 75.46 76.14 75.67 75.20 75.25 75.60 75.19 75.19 75.12 70.21 68.02 70.35 71.14 73.89 76.13 76.51 76.07 76.04 76.05
73.36 74.36 75.98 78.00 77.72 77.40 76.76 76.33 76.31 76.18 76.40 76.46 76.33 76.08 75.84 76.00 75.89 75.84 75.67 75.76 75.76 75.70 75.51 75.56 75.68 75.81 75.92 75.36 75.36 75.45 75.59 75.63 75.69 72.08 68.56 68.35 71.21 74.08 76.08 76.12 76.56 76.34 76.36
73.20 74.35 75.53 77.77 78.05 77.11 76.31 76.13 76.18 76.24 76.38 76.44 76.14 75.81 75.76 75.95 76.27 75.94 76.03 75.92 75.89 75.89 76.16 75.78 76.20 76.20 76.08 75.50 75.65 75.38 75.27 75.69 75.39 73.49 71.59 70.01 70.77 73.83 76.08 76.05 76.65 76.61 76.30
74.14 74.82 75.16 75.79 76.66 77.33 76.70 76.41 76.43 76.73 76.68 76.61 76.03 76.09 76.05 76.19 76.08 76.00 76.02 76.11 76.03 76.44 76.24 76.48 75.78 76.39 76.23 75.48 75.74 75.79 75.94 75.76 74.16 73.33 72.57 71.62 71.44 73.01 75.78 76.59 76.83 76.77 76.22
73.78 74.45 73.87 74.44 75.11 74.56 74.68 77.42 77.45 77.27 76.90 76.66 76.63 76.73 76.59 76.36 76.03 76.06 77.04 76.37 76.06 76.29 76.19 76.40 76.36 76.38 76.73 75.70 75.39 75.82 76.04 75.99 74.01 72.70 72.65 72.56 72.70 73.15 74.88 75.95 76.59 76.74 76.58
72.71 72.59 73.21 73.81 73.24 73.84 73.88 75.22 77.59 77.11 77.07 77.11 76.73 77.07 76.14 74.36 74.46 75.89 75.74 76.04 76.11 76.05 76.06 76.42 76.69 76.79 76.50 75.94 76.21 76.22 76.37 75.61 73.93 73.40 73.29 73.69 74.54 74.22 74.71 75.33 76.07 76.68 76.53
70.74 71.97 72.62 72.76 72.49 73.07 74.87 74.61 74.96 74.66 74.94 74.61 74.81 73.70 74.16 74.32 74.03 74.72 75.45 76.21 76.03 76.16 76.21 76.58 76.63 76.16 75.78 75.30 74.26 75.08 74.74 74.21 74.16 74.21 73.89 74.11 74.76 75.68 75.48 75.66 76.37 76.47 76.45
70.58 71.78 72.74 72.15 72.37 72.59 73.70 73.37 73.60 73.87 73.64 73.30 73.49 73.61 73.68 74.22 73.98 74.75 74.28 74.29 74.59 75.51 74.81 75.22 76.31 75.66 75.09 74.37 74.38 74.24 73.60 72.65 72.94 73.44 74.18 75.32 75.65 76.14 76.13 76.01 76.72 76.03 77.10
69.82 71.19 72.44 72.65 72.19 72.10 72.76 72.77 72.98 73.72 73.26 72.91 73.12 73.42 72.94 72.72 73.10 73.06 73.72 73.59 73.68 74.20 74.50 74.48 74.71 74.62 74.64 74.67 73.99 74.17 73.34 72.47 72.27 72.98 73.67 75.26 76.66 76.28 76.50 76.91 76.43 76.39 77.42
69.22 70.56 71.46 72.63 72.31 72.48 71.80 71.43 72.36 73.13 73.44 73.47 73.13 73.02 72.98 72.45 72.31 72.75 72.69 73.25 73.69 74.31 74.37 74.12 74.23 74.11 73.94 73.71 73.16 72.91 73.42 73.39 73.42 73.57 73.91 75.42 76.74 77.08 77.33 77.68 77.26 77.01 77.67
69.30 69.79 70.60 71.58 72.36 72.21 71.89 71.00 71.77 72.59 73.14 73.28 72.98 72.88 72.87 72.74 72.29 72.25 72.17 72.53 73.29 74.21 74.96 73.92 73.53 73.22 72.39 72.39 72.12 72.70 71.73 73.25 73.54 73.54 73.81 74.01 76.31 77.41 77.34 78.02 78.12 78.02 77.81
69.30 69.76 69.37 70.57 71.36 70.94 70.84 70.64 71.72 72.13 72.36 72.57 72.78 72.74 72.56 72.97 72.50 72.75 71.97 72.02 72.79 74.13 74.53 73.94 73.07 72.75 72.03 71.85 71.58 72.72 72.33 72.73 73.15 73.38 72.86 73.34 73.83 77.45 77.81 77.99 77.76 77.93 78.14
69.32 68.89 69.14 70.92 70.26 70.06 69.87 70.28 71.04 72.48 72.24 72.13 72.36 72.58 72.62 72.85 72.91 72.23 72.11 72.03 72.77 73.71 73.95 73.21 72.54 72.23 71.74 71.18 71.06 71.81 72.88 72.98 71.89 72.37 72.96 72.91 73.68 74.91 77.21 77.77 77.36 77.64 78.35
69.10 68.90 68.85 69.92 69.49 69.98 69.96 70.26 71.13 72.08 71.94 72.22 72.49 72.59 72.68 72.97 73.14 72.41 72.10 72.40 72.64 72.70 72.93 72.91 72.42 72.63 71.98 72.08 71.47 71.70 72.21 72.79 72.75 72.79 72.58 72.75 73.36 74.41 74.80 75.43 76.94 77.07 77.74
67.86 69.06 69.34 70.04 70.18 70.33 70.48 69.81 70.41 70.75 70.99 71.66 71.46 71.83 72.40 72.57 72.92 72.30 72.28 71.92 71.46 70.80 70.94 71.40 71.95 71.96 72.41 71.84 71.79 72.15 71.84 71.68 72.23 71.96 71.72 71.86 72.40 73.76 74.71 74.61 74.34 75.72 77.34
65.86 67.48 68.25 69.01 69.89 69.87 68.50 68.36 68.64 68.68 69.89 70.18 70.65 71.24 71.85 72.08 72.33 71.99 72.01 71.71 71.19 70.05 70.21 70.18 70.61 70.41 70.57 72.06 70.82 70.86 71.20 71.72 71.02 71.06 71.47 70.95 70.42 71.29 73.16 74.30 74.39 74.25 74.83
65.08 66.07 67.55 68.77 69.53 69.52 69.91 70.41 70.34 69.79 69.94 70.54 70.77 70.92 71.00 71.58 72.33 71.83 71.58 71.26 71.14 70.64 70.60 69.92 69.89 70.06 70.51 71.27 70.21 67.88 67.05 68.92 69.23 70.09 69.88 69.92 70.10 70.47 70.60 71.83 73.66 73.96 74.33
64.77 65.22 66.74 68.29 69.23 69.59 70.43 69.82 69.17 69.69 69.95 69.10 69.05 69.38 70.60 70.92 71.07 71.99 72.21 71.88 71.58 70.88 70.37 70.65 70.37 70.03 68.99 70.10 69.76 69.45 64.68 64.25 66.29 68.82 69.66 69.70 70.09 69.55 70.10 70.96 71.63 72.84 73.93
65.62 66.38 66.93 67.71 68.35 68.88 69.67 69.08 68.93 68.88 68.04 69.58 69.06 69.96 69.89 70.69 70.75 70.89 71.36 72.11 72.09 71.52 70.50 70.57 70.95 70.22 69.30 67.84 68.85 69.96 69.91 68.48 65.32 64.41 68.28 69.09 69.72 68.98 69.58 70.22 70.25 71.16 72.79
66.90 66.62 66.85 66.80 67.28 68.58 68.97 69.62 68.86 68.62 69.39 69.51 69.66 70.03 70.07 70.69 70.95 71.21 71.39 71.25 71.10 71.30 71.11 70.72 70.62 69.63 69.86 69.35 69.06 69.29 68.90 69.77 68.22 66.33 64.61 67.35 68.45 69.05 69.48 69.60 70.34 70.81 71.81
66.60 67.19 67.76 66.70 66.37 67.12 67.97 68.65 68.87 68.65 68.74 68.25 68.83 69.17 69.95 70.68 71.35 71.51 71.60 71.43 70.98 71.30 71.21 70.96 70.96 70.58 69.63 69.81 70.26 69.37 68.25 67.39 66.44 66.34 65.53 66.47 66.64 68.93 70.34 70.90 70.13 70.47 71.04
MSLP
1013.58 1013.58 1013.71 1014.03 1014.52 1014.73 1014.97 1015.14 1015.34 1015.58 1015.70 1015.86 1015.98 1016.13 1016.45 1016.63 1016.70 1016.85 1016.98 1016.95 1016.91 1016.91 1016.98 1017.07 1017.18 1017.41 1017.63 1017.84 1017.95 1018.01 1018.16 1018.29 1018.31 1018.32 1018.33 1018.41 1018.39 1018.42 1018.62 1018.71 1018.89 1018.89 1018.99
1013.15 1013.51 1013.82 1014.19 1014.70 1014.99 1015.31 1015.42 1015.54 1015.80 1015.93 1016.11 1016.25 1016.41 1016.67 1016.85 1017.03 1017.16 1017.27 1017.25 1017.22 1017.03 1017.07 1017.15 1017.26 1017.36 1017.47 1017.69 1017.93 1018.07 1018.33 1018.56 1018.57 1018.45 1018.43 1018.56 1018.61 1018.55 1018.59 1018.85 1018.96 1019.04 1019.14
1013.25 1013.55 1013.95 1014.29 1014.68 1015.19 1015.61 1015.77 1015.87 1015.99 1016.12 1016.25 1016.45 1016.65 1016.85 1016.99 1017.16 1017.32 1017.49 1017.52 1017.55 1017.42 1017.33 1017.29 1017.29 1017.45 1017.46 1017.54 1017.70 1017.80 1017.92 1018.09 1018.41 1018.66 1018.71 1018.66 1018.62 1018.59 1018.76 1018.93 1019.11 1019.21 1019.41
1013.09 1013.69 1014.03 1014.35 1014.81 1015.18 1015.61 1015.84 1016.10 1016.17 1016.33 1016.47 1016.58 1016.79 1016.94 1017.09 1017.11 1017.19 1017.38 1017.52 1017.62 1017.60 1017.58 1017.47 1017.44 1017.47 1017.49 1017.68 1017.93 1018.00 1018.04 1018.10 1018.21 1018.39 1018.73 1018.75 1018.64 1018.74 1018.88 1019.04 1019.25 1019.43 1019.58
1013.32 1013.89 1014.15 1014.46 1014.91 1015.25 1015.73 1015.84 1016.08 1016.19 1016.36 1016.56 1016.78 1016.98 1017.10 1017.24 1017.32 1017.28 1017.32 1017.46 1017.69 1017.73 1017.74 1017.77 1017.77 1017.75 1017.68 1017.72 1017.90 1018.05 1018.18 1018.19 1018.28 1018.63 1018.97 1019.02 1018.98 1018.95 1019.01 1019.13 1019.34 1019.47 1019.68
1013.71 1013.99 1014.22 1014.64 1015.07 1015.33 1015.74 1015.93 1016.15 1016.35 1016.53 1016.68 1016.82 1016.96 1017.13 1017.30 1017.43 1017.43 1017.46 1017.55 1017.61 1017.78 1017.86 1017.89 1017.97 1017.97 1017.98 1017.93 1017.96 1018.02 1018.19 1018.33 1018.43 1018.80 1019.13 1019.22 1019.29 1019.17 1019.07 1019.23 1019.41 1019.50 1019.76
1013.81 1014.12 1014.28 1014.70 1015.09 1015.37 1015.74 1016.04 1016.25 1016.45 1016.62 1016.75 1016.91 1017.01 1017.09 1017.21 1017.38 1017.51 1017.51 1017.63 1017.67 1017.72 1017.85 1018.03 1018.02 1018.14 1018.24 1018.24 1018.19 1018.16 1018.20 1018.27 1018.43 1018.83 1019.10 1019.27 1019.29 1019.32 1019.18 1019.29 1019.39 1019.61 1019.88
1013.83 1014.17 1014.47 1014.86 1015.26 1015.51 1015.81 1016.07 1016.29 1016.50 1016.71 1016.85 1016.97 1017.07 1017.12 1017.13 1017.24 1017.45 1017.56 1017.58 1017.65 1017.70 1017.69 1017.81 1017.90 1018.15 1018.19 1018.36 1018.37 1018.28 1018.28 1018.25 1018.30 1018.65 1018.91 1019.12 1019.33 1019.32 1019.33 1019.33 1019.45 1019.63 1019.87
1013.97 1014.32 1014.65 1014.88 1015.13 1015.39 1015.69 1015.97 1016.24 1016.45 1016.66 1016.84 1016.93 1017.02 1017.09 1017.11 1017.15 1017.28 1017.50 1017.55 1017.59 1017.59 1017.59 1017.76 1017.95 1017.94 1018.04 1018.30 1018.47 1018.61 1018.46 1018.43 1018.65 1018.71 1018.76 1018.97 1019.10 1019.29 1019.27 1019.38 1019.42 1019.64 1019.85
1014.43 1014.52 1014.79 1014.95 1015.05 1015.33 1015.63 1015.86 1016.12 1016.32 1016.49 1016.65 1016.75 1016.86 1016.94 1017.01 1017.11 1017.14 1017.21 1017.40 1017.42 1017.44 1017.62 1017.67 1017.65 1017.82 1017.95 1018.11 1018.36 1018.48 1018.53 1018.47 1018.70 1018.76 1018.81 1018.90 1018.97 1019.00 1019.17 1019.23 1019.41 1019.53 1019.74
1014.77 1014.93 1014.99 1015.24 1015.44 1015.58 1015.83 1015.93 1016.11 1016.31 1016.47 1016.60 1016.71 1016.77 1016.79 1016.96 1017.08 1017.07 1017.21 1017.32 1017.25 1017.23 1017.36 1017.50 1017.49 1017.53 1017.75 1017.92 1018.04 1018.19 1018.29 1018.49 1018.69 1018.78 1018.71 1018.62 1018.78 1018.91 1018.93 1019.04 1019.14 1019.28 1019.54
1014.69 1014.94 1015.18 1015.30 1015.51 1015.66 1015.73 1015.95 1016.11 1016.38 1016.49 1016.64 1016.81 1016.97 1016.97 1017.10 1017.21 1017.21 1017.28 1017.23 1017.27 1017.29 1017.40 1017.35 1017.42 1017.53 1017.53 1017.65 1017.99 1017.99 1018.07 1018.27 1018.44 1018.52 1018.43 1018.46 1018.46 1018.55 1018.69 1018.85 1018.97 1018.94 1019.15
1014.21 1014.76 1015.02 1015.30 1015.39 1015.54 1015.59 1015.87 1016.11 1016.27 1016.49 1016.67 1016.81 1016.91 1017.03 1017.14 1017.30 1017.35 1017.41 1017.35 1017.27 1017.27 1017.38 1017.41 1017.47 1017.46 1017.61 1017.68 1017.68 1017.85 1017.96 1017.97 1017.96 1018.03 1017.97 1017.95 1018.05 1018.10 1018.18 1018.39 1018.63 1018.81 1018.97
1014.21 1014.53 1014.87 1015.03 1015.32 1015.48 1015.63 1015.78 1015.96 1016.16 1016.30 1016.49 1016.58 1016.76 1017.01 1017.13 1017.19 1017.31 1017.35 1017.33 1017.39 1017.29 1017.39 1017.54 1017.42 1017.51 1017.55 1017.63 1017.65 1017.69 1017.71 1017.73 1017.69 1017.62 1017.64 1017.64 1017.62 1017.66 1017.78 1018.03 1018.30 1018.53 1018.69
1013.99 1014.18 1014.48 1014.88 1015.15 1015.25 1015.56 1015.72 1015.84 1015.94 1016.03 1016.17 1016.35 1016.45 1016.65 1016.89 1016.98 1017.07 1017.15 1017.23 1017.20 1017.20 1017.17 1017.27 1017.16 1017.24 1017.45 1017.47 1017.48 1017.55 1017.47 1017.44 1017.47 1017.37 1017.29 1017.29 1017.27 1017.19 1017.29 1017.47 1017.84 1018.22 1018.37
1013.39 1013.65 1014.06 1014.39 1014.61 1014.89 1015.16 1015.20 1015.34 1015.50 1015.57 1015.82 1016.01 1016.13 1016.38 1016.52 1016.69 1016.73 1016.85 1016.89 1016.88 1016.80 1016.75 1016.87 1016.95 1017.10 1017.32 1017.51 1017.49 1017.37 1017.24 1017.29 1017.26 1017.18 1016.95 1016.93 1016.83 1016.86 1016.85 1017.01 1017.31 1017.69 1018.04
1012.46 1012.92 1013.28 1013.69 1013.99 1014.36 1014.51 1014.59 1014.85 1015.11 1015.35 1015.42 1015.44 1015.61 1015.77 1016.01 1016.29 1016.35 1016.41 1016.51 1016.42 1016.41 1016.49 1016.62 1016.71 1016.83 1017.06 1017.14 1017.28 1017.21 1017.09 1016.82 1016.89 1016.87 1016.78 1016.69 1016.55 1016.42 1016.49 1016.65 1016.85 1017.14 1017.52
1012.30 1012.35 1012.67 1013.10 1013.49 1013.91 1014.11 1014.23 1014.46 1014.62 1014.85 1015.02 1015.13 1015.15 1015.21 1015.25 1015.42 1015.89 1016.12 1016.15 1015.93 1016.13 1016.25 1016.43 1016.54 1016.71 1016.83 1017.03 1017.07 1016.91 1017.01 1016.89 1016.65 1016.61 1016.51 1016.28 1016.13 1016.11 1016.17 1016.35 1016.43 1016.68 1017.05
1011.23 1011.84 1012.28 1012.59 1012.90 1013.28 1013.69 1013.84 1014.09 1014.21 1014.45 1014.53 1014.71 1014.85 1014.87 1014.95 1015.03 1015.30 1015.47 1015.43 1015.59 1015.81 1016.03 1016.15 1016.35 1016.43 1016.45 1016.67 1016.67 1016.65 1016.44 1016.51 1016.50 1016.33 1016.24 1016.23 1016.04 1015.92 1015.93 1016.02 1016.17 1016.34 1016.59
1010.72 1011.21 1011.74 1012.21 1012.49 1012.88 1013.36 1013.63 1013.83 1014.08 1014.08 1014.05 1014.07 1014.12 1014.15 1014.23 1014.39 1014.65 1014.81 1014.91 1015.10 1015.55 1015.83 1015.96 1016.11 1016.17 1016.19 1016.26 1016.34 1016.07 1015.96 1015.94 1015.86 1015.87 1015.69 1015.55 1015.65 1015.63 1015.58 1015.73 1015.91 1015.92 1016.05
1010.45 1010.85 1011.13 1011.63 1011.69 1012.31 1012.95 1013.46 1013.79 1013.78 1013.73 1013.65 1013.52 1013.45 1013.57 1013.72 1013.81 1014.07 1014.01 1014.25 1014.43 1014.81 1015.02 1015.41 1015.71 1016.04 1016.17 1016.18 1016.35 1016.02 1015.58 1015.32 1015.34 1015.33 1015.13 1015.06 1015.14 1015.19 1015.31 1015.40 1015.46 1015.54 1015.55
1009.58 1010.00 1010.50 1010.58 1010.89 1011.30 1011.74 1011.94 1012.06 1012.13 1012.19 1012.23 1012.55 1012.78 1013.03 1013.44 1013.69 1013.89 1014.07 1014.22 1014.36 1014.45 1014.44 1014.77 1015.35 1015.74 1015.99 1016.13 1016.00 1016.21 1015.74 1014.95 1014.59 1014.49 1014.51 1014.51 1014.43 1014.53 1014.61 1014.70 1014.89 1015.02 1015.16
1008.93 1009.24 1009.51 1009.73 1010.32 1010.79 1011.10 1011.53 1011.88 1012.28 1012.42 1012.51 1012.54 1012.63 1012.68 1012.87 1013.17 1013.36 1013.56 1013.81 1013.93 1013.99 1013.97 1013.83 1014.11 1014.63 1015.10 1015.35 1015.47 1015.41 1015.54 1015.09 1014.68 1013.88 1013.69 1013.74 1013.77 1013.99 1013.95 1014.10 1014.23 1014.33 1014.51
1007.80 1008.32 1008.74 1009.11 1009.60 1010.03 1010.37 1010.86 1011.31 1011.54 1011.79 1011.61 1011.80 1011.73 1011.71 1011.74 1012.06 1012.28 1012.65 1012.79 1013.54 1013.98 1014.09 1013.78 1013.47 1013.81 1014.09 1014.11 1014.64 1014.73 1014.53 1014.37 1014.50 1014.12 1013.74 1013.35 1013.31 1013.27 1013.22 1013.30 1013.33 1013.39 1013.59
1007.07 1007.62 1008.02 1008.57 1009.13 1009.28 1009.55 1010.10 1010.65 1011.05 1011.00 1010.90 1011.24 1011.38 1011.28 1011.37 1011.35 1011.59 1012.02 1012.20 1012.24 1012.89 1013.69 1013.78 1013.35 1013.01 1013.04 1013.35 1013.91 1014.11 1014.43 1014.47 1014.33 1014.27 1013.37 1013.05 1013.11 1012.75 1012.53 1012.42 1012.51 1012.57 1012.61
1006.39 1007.09 1007.66 1008.17 1008.37 1008.71 1009.13 1009.47 1009.64 1009.82 1010.05 1010.50 1010.81 1010.59 1010.85 1011.39 1011.67 1011.75 1011.73 1011.91 1012.14 1012.31 1012.45 1012.51 1012.65 1012.47 1012.41 1012.33 1012.71 1013.11 1013.48 1013.74 1013.69 1013.63 1013.26 1012.66 1012.56 1011.96 1011.94 1011.79 1011.69 1011.67 1011.74
Wind_Speed
8 9 17 18 18 19 18 18 17 16 17 17 16 16 15 14 14 12 11 9 6 5 6 7 8 8 8 8 9 10 10 10 11 10 10 11 12 13 13 13 12 11 13
12 10 17 18 18 18 18 17 17 16 17 16 16 15 14 12 12 10 9 7 6 3 3 3 4 5 5 4 3 3 6 7 9 11 13 13 13 12 12 11 12 9 12
13 11 14 18 18 18 18 17 17 17 17 16 15 14 13 12 10 9 8 7 6 5 3 2 2 3 1 1 0 2 3 3 5 9 9 5 6 13 12 11 10 11 10
13 10 12 18 18 18 18 16 16 16 16 15 15 14 13 12 11 10 10 9 7 6 5 3 2 1 2 2 2 2 2 2 4 6 4 3 4 9 9 9 10 10 9
13 8 13 19 18 20 18 17 15 15 15 14 14 13 12 10 8 7 8 8 7 6 6 5 4 3 4 4 2 2 2 2 1 4 2 2 3 2 6 9 9 9 9
11 10 16 19 20 20 19 17 16 15 14 14 14 13 11 9 8 7 6 6 7 5 5 5 6 6 5 5 5 4 4 5 5 4 1 2 1 4 8 10 9 9 8
11 9 13 18 18 18 18 17 16 14 14 13 12 11 10 10 9 8 8 7 6 6 6 6 7 6 6 6 6 6 6 7 4 4 3 3 4 5 7 9 9 10 9
10 9 10 17 17 17 17 17 16 14 14 13 12 11 10 10 10 10 9 9 8 8 8 8 9 8 8 7 7 6 6 7 5 5 6 4 6 7 8 9 9 10 10
9 8 8 9 15 18 18 17 16 15 14 13 12 12 11 10 11 11 10 11 11 11 12 10 10 9 9 8 9 8 8 9 3 3 5 4 10 10 11 10 11 10 10
5 6 5 5 8 8 9 17 15 15 15 14 14 13 12 11 11 12 10 9 11 12 11 10 12 11 9 9 9 10 10 11 4 4 4 4 11 15 15 14 11 12 11
5 4 4 5 4 5 5 8 13 16 15 15 13 14 10 3 4 6 6 9 12 12 11 11 11 11 10 11 11 12 11 3 3 4 3 9 13 16 18 16 13 12 13
8 7 5 5 5 5 6 5 5 5 4 3 4 5 3 3 3 5 7 10 11 11 11 11 11 12 11 2 2 5 2 4 4 4 4 10 13 16 17 18 16 14 14
11 8 8 6 5 6 6 3 2 2 2 3 5 4 3 2 2 2 2 3 2 8 2 5 5 4 4 3 3 3 4 5 4 5 7 10 11 14 14 15 14 13 14
11 10 8 8 7 6 4 4 3 3 3 3 4 4 3 2 3 3 3 4 3 3 4 4 3 3 5 5 5 5 6 5 4 4 6 11 11 12 11 13 13 15 15
10 11 10 10 9 8 7 3 4 5 5 5 4 5 4 4 4 3 4 3 4 4 5 5 5 4 4 5 4 5 6 7 7 5 4 13 14 13 14 15 15 16 16
10 11 10 12 11 10 10 8 7 6 6 5 5 6 7 5 5 4 4 5 5 5 5 5 5 3 3 3 5 5 5 6 7 8 6 7 15 15 16 17 17 16 17
13 11 13 12 12 12 12 9 8 6 6 6 7 7 8 8 7 7 5 5 6 5 5 4 4 3 4 3 6 5 5 6 6 8 7 5 7 14 14 16 16 16 17
9 13 12 11 13 12 11 8 7 6 5 6 6 5 9 9 10 7 6 6 6 4 4 4 3 4 4 4 5 6 6 5 7 7 7 6 5 6 9 15 16 16 17
14 11 12 13 13 14 11 8 7 7 6 6 5 5 8 9 10 8 6 7 5 4 4 5 5 4 4 4 5 5 6 6 6 6 6 7 7 7 6 10 16 16 17
12 12 11 11 12 11 7 5 3 3 5 6 7 8 10 9 10 9 7 7 5 4 4 5 6 4 4 4 5 6 5 5 5 6 8 7 7 9 8 8 6 9 17
8 10 12 12 13 8 5 5 5 7 7 7 8 11 10 9 10 10 8 7 6 8 9 7 4 5 4 3 1 3 5 7 7 7 6 6 7 7 8 8 6 6 7
13 14 11 14 13 11 9 7 6 6 7 8 7 9 8 7 8 8 8 7 8 7 7 7 7 3 3 4 3 1 3 3 5 8 7 7 11 6 8 10 9 9 9
12 14 14 15 13 12 13 4 2 2 1 2 3 5 8 9 8 9 7 7 8 7 8 8 7 10 7 5 7 4 1 6 1 2 7 7 9 7 8 8 9 10 10
15 12 13 13 13 12 11 8 11 10 9 7 4 6 8 11 11 10 9 8 6 5 8 9 7 9 6 10 2 7 5 2 6 6 3 5 7 9 10 8 10 10 11
11 11 12 10 10 12 13 13 10 11 9 7 4 6 7 6 10 10 9 9 9 7 9 10 8 9 9 9 7 3 5 6 5 7 11 7 4 7 8 9 9 9 11
9 8 7 9 10 10 9 13 15 16 15 8 6 7 4 3 3 5 7 10 10 9 11 11 11 10 9 8 7 6 9 6 4 6 7 9 9 8 7 7 8 9 9
Wind_Direction
161 160 154 146 143 136 132 132 134 135 130 130 131 129 136 142 142 139 136 130 119 111 101 95 87 91 109 120 129 137 133 133 136 138 136 132 125 118 109 110 113 107 105
142 155 151 147 146 141 139 137 138 139 135 133 133 135 142 148 149 148 146 144 136 126 110 97 98 84 80 87 101 100 110 113 119 141 143 141 132 115 108 103 108 106 104
142 152 150 148 150 148 146 145 144 145 144 141 139 144 150 155 159 161 163 161 159 155 151 152 117 97 73 357 354 21 15 37 87 113 120 122 126 116 111 105 111 113 113
142 145 150 149 154 153 153 151 152 148 149 149 149 153 159 163 168 172 174 175 174 175 174 192 212 182 252 253 311 335 356 20 58 74 67 78 105 132 114 117 118 119 115
144 143 154 154 159 158 160 159 161 158 158 160 158 158 160 161 161 176 177 182 185 191 184 189 215 228 265 282 260 266 291 309 139 92 76 46 23 145 169 148 138 129 133
143 148 159 163 164 164 166 167 169 167 168 171 171 171 171 176 185 197 204 201 211 201 212 218 222 219 232 255 270 245 235 233 220 133 145 227 148 280 161 161 155 142 141
146 156 163 169 170 168 171 174 174 176 176 179 184 188 188 192 198 205 221 223 237 248 245 242 243 235 222 232 236 245 241 233 192 178 183 219 203 236 177 175 165 159 157
145 158 167 172 173 172 178 180 182 187 189 192 194 194 195 198 207 210 219 231 236 249 250 245 242 228 222 220 229 235 240 250 222 208 208 202 219 219 213 191 188 175 174
153 154 167 176 178 181 185 189 191 194 199 200 201 201 202 201 212 220 226 234 242 241 247 245 249 248 228 231 225 222 239 243 237 245 237 214 213 223 217 213 203 190 188
142 156 163 172 182 179 189 192 195 198 202 205 206 206 207 212 221 230 231 236 243 247 252 249 246 242 242 239 239 235 237 245 210 213 229 237 230 223 221 218 215 202 199
154 164 157 165 168 170 180 201 200 206 210 212 214 214 215 204 236 242 238 227 243 240 239 243 251 255 247 243 241 238 237 235 225 220 220 228 233 227 220 221 217 208 206
184 187 175 171 173 170 190 194 189 212 211 207 216 230 229 214 224 235 243 243 242 243 241 245 249 254 259 232 270 274 255 254 250 240 230 222 220 218 222 227 223 209 211
185 188 183 177 177 179 197 181 191 194 205 211 218 221 230 229 242 250 256 267 264 256 238 256 255 249 250 242 240 243 258 259 245 243 247 237 231 219 219 212 213 215 219
189 193 183 182 182 191 190 194 191 197 206 211 214 213 209 223 230 233 234 241 250 255 256 249 250 241 244 247 240 247 251 250 247 250 250 252 248 238 226 213 217 223 218
194 193 191 185 193 195 202 200 197 208 208 212 210 209 198 213 230 229 235 235 235 230 245 239 247 249 253 263 256 244 247 246 244 244 243 247 247 242 233 226 222 229 222
198 198 190 195 196 193 205 204 208 208 210 199 209 217 208 209 215 223 237 236 236 230 229 232 235 238 246 247 271 260 250 249 248 255 252 254 248 239 234 224 220 224 227
204 190 195 195 195 198 206 207 208 209 205 214 215 209 207 205 215 221 225 240 244 229 225 233 217 226 237 233 261 254 254 254 253 252 259 242 258 247 224 217 219 222 224
198 199 191 196 199 202 208 209 213 209 202 215 224 212 212 212 211 213 225 237 238 233 229 225 232 232 225 201 249 256 256 252 260 266 266 265 246 245 227 225 222 224 227
200 192 196 194 201 202 205 202 209 215 207 216 214 218 222 222 217 213 222 237 230 230 225 235 229 217 229 223 226 233 245 252 248 247 254 262 254 236 228 236 233 226 230
200 194 199 200 206 203 200 203 200 207 222 221 220 218 218 218 218 206 216 225 210 216 230 225 228 217 225 226 236 244 237 241 241 241 244 243 237 241 236 234 234 237 233
200 197 193 191 203 178 172 183 216 224 225 229 230 228 218 217 217 213 213 212 202 213 228 215 220 226 246 223 256 258 260 246 244 240 241 226 229 232 237 237 231 235 239
201 204 199 206 200 197 202 211 210 196 220 214 213 219 218 216 220 219 222 222 218 223 221 210 199 228 248 191 206 54 286 284 237 230 221 223 232 222 235 229 228 231 234
200 199 204 207 201 202 210 196 119 39 1 176 219 230 227 215 212 216 221 233 234 218 233 216 194 202 233 211 221 181 208 234 278 255 232 225 227 217 231 233 228 229 231
213 201 209 202 200 201 195 200 204 216 227 229 217 214 207 205 213 210 211 210 222 226 236 237 216 225 212 240 190 236 250 177 246 274 244 251 222 225 224 225 232 227 223
216 204 205 200 206 205 195 200 201 218 231 230 203 211 211 202 208 208 207 217 218 213 233 247 243 206 208 229 224 208 237 252 240 238 270 245 237 232 227 221 221 226 222
205 201 199 197 207 198 201 205 208 212 219 211 200 220 225 267 269 222 207 220 235 226 221 229 238 234 225 217 226 220 233 229 217 219 240 258 250 243 224 223 216 219 220